Data No.,UTC Date,UTC Time,Latitude,Longitude,Course(deg),Temp(degC),Sal(psu)
21,2011/2/25,14:24:00,08-30.0400N,104-13.9300E,127,26.647,32.4823
22,2011/2/25,14:25:00,08-29.9500N,104-14.0600E,128,26.665,32.486
23,2011/2/25,14:26:00,08-29.8500N,104-14.1800E,127,26.696,32.4902
24,2011/2/25,14:27:00,08-29.7600N,104-14.3000E,127,26.741,32.4955
25,2011/2/25,14:28:00,08-29.6600N,104-14.4200E,127,26.765,32.5022
26,2011/2/25,14:29:00,08-29.5700N,104-14.5500E,127,26.773,---
27,2011/2/25,14:30:00,08-29.4700N,104-14.6700E,129,26.768,32.5204
28,2011/2/25,14:31:00,08-29.3700N,104-14.7900E,129,26.773,32.527
29,2011/2/25,14:32:00,08-29.2700N,104-14.9100E,129,26.776,32.5312
30,2011/2/25,14:33:00,08-29.1800N,104-15.0300E,128,26.786,32.5343
31,2011/2/25,14:34:00,08-29.0800N,104-15.1500E,128,26.786,---
32,2011/2/25,14:35:00,08-28.9800N,104-15.2700E,129,26.771,32.543
33,2011/2/25,14:36:00,08-28.8800N,104-15.3900E,128,26.758,32.5498
34,2011/2/25,14:37:00,08-28.7900N,104-15.5100E,128,26.747,32.5569
35,2011/2/25,14:38:00,08-28.6900N,104-15.6300E,128,26.752,32.5644
36,2011/2/25,14:39:00,08-28.5900N,104-15.7500E,129,26.78,32.5743
37,2011/2/25,14:40:00,08-28.5000N,104-15.8700E,128,26.78,32.5853
38,2011/2/25,14:41:00,08-28.4000N,104-15.9900E,128,26.758,32.5977
39,2011/2/25,14:42:00,08-28.3000N,104-16.1200E,128,26.702,32.6139
40,2011/2/25,14:43:00,08-28.2000N,104-16.2400E,127,26.69,32.6286
41,2011/2/25,14:44:00,08-28.1100N,104-16.3600E,127,26.681,32.6423
42,2011/2/25,14:45:00,08-28.0100N,104-16.4900E,128,26.706,32.6484
43,2011/2/25,14:46:00,08-27.9100N,104-16.6100E,129,26.707,32.6549
44,2011/2/25,14:47:00,08-27.8100N,104-16.7300E,129,26.7,32.6632
45,2011/2/25,14:48:00,08-27.7100N,104-16.8500E,129,26.71,32.6754
46,2011/2/25,14:49:00,08-27.6100N,104-16.9800E,128,26.718,32.6883
47,2011/2/25,14:50:00,08-27.5200N,104-17.1000E,127,26.715,32.7013
48,2011/2/25,14:51:00,08-27.4200N,104-17.2200E,127,26.709,32.7111
49,2011/2/25,14:52:00,08-27.3300N,104-17.3500E,127,26.714,32.7189
50,2011/2/25,14:53:00,08-27.2300N,104-17.4800E,127,26.724,32.7267
51,2011/2/25,14:54:00,08-27.1400N,104-17.6000E,127,26.729,32.7334
52,2011/2/25,14:55:00,08-27.0400N,104-17.7200E,127,26.739,32.7391
53,2011/2/25,14:56:00,08-26.9500N,104-17.8500E,127,26.744,32.7436
54,2011/2/25,14:57:00,08-26.8500N,104-17.9800E,127,26.737,32.7487
55,2011/2/25,14:58:00,08-26.7600N,104-18.1000E,127,26.741,32.7539
56,2011/2/25,14:59:00,08-26.6600N,104-18.2300E,127,26.742,32.7592
57,2011/2/25,15:00:00,08-26.5700N,104-18.3500E,127,26.733,32.7641
58,2011/2/25,15:01:00,08-26.4700N,104-18.4800E,126,26.724,32.7686
59,2011/2/25,15:02:00,08-26.3800N,104-18.6000E,127,26.717,32.7727
60,2011/2/25,15:03:00,08-26.2800N,104-18.7200E,127,26.721,32.7771
61,2011/2/25,15:04:00,08-26.1900N,104-18.8500E,127,26.709,32.7819
62,2011/2/25,15:05:00,08-26.0900N,104-18.9700E,127,26.724,32.7878
63,2011/2/25,15:06:00,08-26.0000N,104-19.1000E,127,26.704,32.7964
64,2011/2/25,15:07:00,08-25.9100N,104-19.2200E,126,26.673,32.81
65,2011/2/25,15:08:00,08-25.8100N,104-19.3500E,127,26.658,32.8238
66,2011/2/25,15:09:00,08-25.7200N,104-19.4700E,127,26.646,32.8349
67,2011/2/25,15:10:00,08-25.6300N,104-19.6000E,126,26.638,32.8441
68,2011/2/25,15:11:00,08-25.5400N,104-19.7300E,125,26.604,32.8534
69,2011/2/25,15:12:00,08-25.4400N,104-19.8500E,125,26.606,32.8609
70,2011/2/25,15:13:00,08-25.3500N,104-19.9800E,126,26.614,32.8728
71,2011/2/25,15:14:00,08-25.2600N,104-20.1000E,127,26.606,32.883
72,2011/2/25,15:15:00,08-25.1700N,104-20.2300E,127,26.612,32.8919
73,2011/2/25,15:16:00,08-25.0700N,104-20.3500E,126,26.603,32.8967
74,2011/2/25,15:17:00,08-24.9800N,104-20.4800E,126,26.587,32.9024
75,2011/2/25,15:18:00,08-24.8900N,104-20.6000E,126,26.572,---
76,2011/2/25,15:19:00,08-24.8000N,104-20.7300E,126,26.563,32.9091
77,2011/2/25,15:20:00,08-24.7000N,104-20.8500E,127,26.556,32.9138
78,2011/2/25,15:21:00,08-24.6100N,104-20.9800E,126,26.551,32.9206
79,2011/2/25,15:22:00,08-24.5200N,104-21.1000E,126,26.54,32.9259
80,2011/2/25,15:23:00,08-24.4300N,104-21.2300E,125,26.537,32.9293
81,2011/2/25,15:24:00,08-24.3400N,104-21.3500E,126,26.648,32.9308
82,2011/2/25,15:25:00,08-24.2500N,104-21.4800E,127,26.688,32.9347
83,2011/2/25,15:26:00,08-24.1500N,104-21.6000E,127,26.727,32.935
84,2011/2/25,15:27:00,08-24.0700N,104-21.7200E,126,26.748,32.9031
85,2011/2/25,15:28:00,08-23.9800N,104-21.8400E,126,26.753,32.8398
86,2011/2/25,15:29:00,08-23.8900N,104-21.9600E,126,26.749,32.7975
87,2011/2/25,15:30:00,08-23.8000N,104-22.0800E,126,26.758,32.7551
88,2011/2/25,15:31:00,08-23.7100N,104-22.2000E,126,26.746,32.7318
89,2011/2/25,15:32:00,08-23.6200N,104-22.3200E,126,26.725,32.7254
90,2011/2/25,15:33:00,08-23.5300N,104-22.4400E,127,26.727,32.7198
91,2011/2/25,15:34:00,08-23.4500N,104-22.5600E,127,26.731,32.7184
92,2011/2/25,15:35:00,08-23.3600N,104-22.6800E,125,26.73,32.7287
93,2011/2/25,15:36:00,08-23.2700N,104-22.8000E,126,26.747,32.7334
94,2011/2/25,15:37:00,08-23.1800N,104-22.9200E,127,26.754,32.7315
95,2011/2/25,15:38:00,08-23.0900N,104-23.0400E,126,26.754,32.7276
96,2011/2/25,15:39:00,08-23.0000N,104-23.1600E,126,26.75,32.7192
97,2011/2/25,15:40:00,08-22.9200N,104-23.2800E,126,26.737,32.71
98,2011/2/25,15:41:00,08-22.8300N,104-23.4000E,126,26.734,32.7041
99,2011/2/25,15:42:00,08-22.7400N,104-23.5100E,126,26.714,32.7072
100,2011/2/25,15:43:00,08-22.6500N,104-23.6300E,126,26.701,32.7141
101,2011/2/25,15:44:00,08-22.5600N,104-23.7500E,126,26.684,32.7223
102,2011/2/25,15:45:00,08-22.4800N,104-23.8700E,125,26.677,32.7398
103,2011/2/25,15:46:00,08-22.3900N,104-23.9900E,127,26.677,32.755
104,2011/2/25,15:47:00,08-22.3000N,104-24.1100E,127,26.69,---
105,2011/2/25,15:48:00,08-22.2100N,104-24.2300E,126,26.687,32.7745
106,2011/2/25,15:49:00,08-22.1300N,104-24.3500E,127,26.689,32.7784
107,2011/2/25,15:50:00,08-22.0400N,104-24.4600E,127,26.699,32.7741
108,2011/2/25,15:51:00,08-21.9500N,104-24.5800E,126,26.689,---
109,2011/2/25,15:52:00,08-21.8600N,104-24.7000E,126,26.671,32.7697
110,2011/2/25,15:53:00,08-21.7700N,104-24.8200E,127,26.66,---
111,2011/2/25,15:54:00,08-21.6800N,104-24.9400E,126,26.664,32.7671
112,2011/2/25,15:55:00,08-21.5900N,104-25.0600E,126,26.656,32.7844
113,2011/2/25,15:56:00,08-21.5000N,104-25.1800E,125,26.657,32.8043
114,2011/2/25,15:57:00,08-21.4200N,104-25.3000E,125,26.654,32.813
115,2011/2/25,15:58:00,08-21.3300N,104-25.4200E,125,26.659,32.8178
116,2011/2/25,15:59:00,08-21.2400N,104-25.5400E,125,26.667,32.8211
117,2011/2/25,16:00:00,08-21.1600N,104-25.6600E,125,26.669,32.8258
118,2011/2/25,16:01:00,08-21.0700N,104-25.7800E,125,26.682,32.8235
119,2011/2/25,16:02:00,08-20.9800N,104-25.9000E,126,26.694,32.8164
120,2011/2/25,16:03:00,08-20.8900N,104-26.0200E,125,26.693,32.8105
121,2011/2/25,16:04:00,08-20.8100N,104-26.1400E,126,26.685,32.8016
122,2011/2/25,16:05:00,08-20.7200N,104-26.2600E,125,26.682,32.7876
123,2011/2/25,16:06:00,08-20.6300N,104-26.3800E,126,26.689,32.7809
124,2011/2/25,16:07:00,08-20.5400N,104-26.5000E,126,26.692,32.7831
125,2011/2/25,16:08:00,08-20.4500N,104-26.6200E,126,26.686,32.7896
126,2011/2/25,16:09:00,08-20.3600N,104-26.7400E,127,26.673,32.7892
127,2011/2/25,16:10:00,08-20.2800N,104-26.8600E,125,26.67,32.7841
128,2011/2/25,16:11:00,08-20.1900N,104-26.9800E,125,26.661,32.7848
129,2011/2/25,16:12:00,08-20.1000N,104-27.1000E,126,26.647,---
130,2011/2/25,16:13:00,08-20.0100N,104-27.2200E,127,26.633,32.8
131,2011/2/25,16:14:00,08-19.9200N,104-27.3400E,127,26.631,32.8125
132,2011/2/25,16:15:00,08-19.8300N,104-27.4600E,126,26.621,32.8307
133,2011/2/25,16:16:00,08-19.7400N,104-27.5800E,124,26.613,32.8449
134,2011/2/25,16:17:00,08-19.6600N,104-27.7100E,123,26.606,32.8526
135,2011/2/25,16:18:00,08-19.5800N,104-27.8400E,121,26.601,32.8637
136,2011/2/25,16:19:00,08-19.5000N,104-27.9600E,121,26.592,32.8763
137,2011/2/25,16:20:00,08-19.4200N,104-28.0900E,120,26.584,32.8846
138,2011/2/25,16:21:00,08-19.3500N,104-28.2200E,120,26.58,32.8904
139,2011/2/25,16:22:00,08-19.2700N,104-28.3500E,122,26.58,32.8991
140,2011/2/25,16:23:00,08-19.1900N,104-28.4800E,122,26.582,32.9094
141,2011/2/25,16:24:00,08-19.1100N,104-28.6100E,121,26.583,---
142,2011/2/25,16:25:00,08-19.0300N,104-28.7400E,121,26.585,32.9154
143,2011/2/25,16:26:00,08-18.9400N,104-28.8600E,125,26.578,32.9076
144,2011/2/25,16:27:00,08-18.8500N,104-28.9800E,128,26.565,32.8992
145,2011/2/25,16:28:00,08-18.7500N,104-29.1000E,129,26.551,32.8925
146,2011/2/25,16:29:00,08-18.6600N,104-29.2200E,128,26.543,32.8906
147,2011/2/25,16:30:00,08-18.5600N,104-29.3300E,129,26.535,32.8978
148,2011/2/25,16:31:00,08-18.4700N,104-29.4500E,129,26.536,32.9126
149,2011/2/25,16:32:00,08-18.3700N,104-29.5700E,128,26.537,32.9277
150,2011/2/25,16:33:00,08-18.2700N,104-29.6900E,129,26.536,32.9591
151,2011/2/25,16:34:00,08-18.1900N,104-29.8100E,117,26.541,32.9619
152,2011/2/25,16:35:00,08-18.1400N,104-29.9500E,107,26.55,---
153,2011/2/25,16:36:00,08-18.1200N,104-30.1000E,91,26.544,32.9657
154,2011/2/25,16:37:00,08-18.1200N,104-30.2600E,87,26.538,32.9657
155,2011/2/25,16:38:00,08-18.1300N,104-30.4100E,86,26.528,32.9618
156,2011/2/25,16:39:00,08-18.1400N,104-30.5600E,86,26.523,---
157,2011/2/25,16:40:00,08-18.1500N,104-30.7200E,87,26.513,32.9655
158,2011/2/25,16:41:00,08-18.1600N,104-30.8700E,84,26.504,32.9713
159,2011/2/25,16:42:00,08-18.1800N,104-31.0300E,84,26.495,32.9778
160,2011/2/25,16:43:00,08-18.1900N,104-31.1900E,83,26.488,32.9848
161,2011/2/25,16:44:00,08-18.2100N,104-31.3400E,83,26.483,32.9926
162,2011/2/25,16:45:00,08-18.2300N,104-31.5000E,83,26.485,32.9988
163,2011/2/25,16:46:00,08-18.2400N,104-31.6500E,83,26.476,33.0033
164,2011/2/25,16:47:00,08-18.2600N,104-31.8100E,84,26.473,33.0068
165,2011/2/25,16:48:00,08-18.2700N,104-31.9700E,86,26.472,33.0056
166,2011/2/25,16:49:00,08-18.2800N,104-32.1300E,85,26.47,33.0075
167,2011/2/25,16:50:00,08-18.2900N,104-32.2800E,86,26.473,33.0099
168,2011/2/25,16:51:00,08-18.3000N,104-32.4400E,87,26.474,33.011
169,2011/2/25,16:52:00,08-18.3100N,104-32.6000E,87,26.476,33.0122
170,2011/2/25,16:53:00,08-18.3200N,104-32.7600E,88,26.473,33.0123
171,2011/2/25,16:54:00,08-18.3300N,104-32.9200E,86,26.469,33.0115
172,2011/2/25,16:55:00,08-18.3300N,104-33.0800E,86,26.47,33.0113
173,2011/2/25,16:56:00,08-18.3500N,104-33.2400E,86,26.479,33.0119
174,2011/2/25,16:57:00,08-18.3500N,104-33.4000E,87,26.49,33.0134
175,2011/2/25,16:58:00,08-18.3600N,104-33.5600E,89,26.498,33.0131
176,2011/2/25,16:59:00,08-18.3700N,104-33.7300E,88,26.505,33.0079
177,2011/2/25,17:00:00,08-18.3700N,104-33.8900E,88,26.512,32.9994
178,2011/2/25,17:01:00,08-18.3800N,104-34.0500E,88,26.516,32.9893
179,2011/2/25,17:02:00,08-18.3900N,104-34.2100E,88,26.517,32.9815
180,2011/2/25,17:03:00,08-18.3900N,104-34.3700E,87,26.521,32.9749
181,2011/2/25,17:04:00,08-18.4000N,104-34.5300E,88,26.519,32.971
182,2011/2/25,17:05:00,08-18.4100N,104-34.6900E,88,26.518,32.9674
183,2011/2/25,17:06:00,08-18.4100N,104-34.8700E,88,26.513,32.9654
184,2011/2/25,17:07:00,08-18.4200N,104-35.0100E,87,26.512,32.9668
185,2011/2/25,17:08:00,08-18.4200N,104-35.1700E,87,26.515,32.9719
186,2011/2/25,17:09:00,08-18.4300N,104-35.3300E,87,26.512,32.9784
187,2011/2/25,17:10:00,08-18.4400N,104-35.5000E,87,26.505,32.985
188,2011/2/25,17:11:00,08-18.4400N,104-35.6600E,87,26.497,32.9906
189,2011/2/25,17:12:00,08-18.4500N,104-35.8200E,88,26.487,32.9959
190,2011/2/25,17:13:00,08-18.4600N,104-35.9800E,88,26.475,33.0033
191,2011/2/25,17:14:00,08-18.4600N,104-36.1400E,87,26.468,33.011
192,2011/2/25,17:15:00,08-18.4700N,104-36.3000E,87,26.459,33.019
193,2011/2/25,17:16:00,08-18.4800N,104-36.4600E,87,26.455,33.0279
194,2011/2/25,17:17:00,08-18.4900N,104-36.6200E,86,26.452,33.0354
195,2011/2/25,17:18:00,08-18.5000N,104-36.7800E,86,26.444,33.041
196,2011/2/25,17:19:00,08-18.5000N,104-36.9400E,86,26.438,33.046
197,2011/2/25,17:20:00,08-18.5100N,104-37.1100E,87,26.438,33.0513
198,2011/2/25,17:21:00,08-18.5200N,104-37.2700E,86,26.431,33.0577
199,2011/2/25,17:22:00,08-18.5300N,104-37.4300E,87,26.43,33.0633
200,2011/2/25,17:23:00,08-18.5400N,104-37.5900E,86,26.429,33.0665
201,2011/2/25,17:24:00,08-18.5400N,104-37.7400E,86,26.429,33.0693
202,2011/2/25,17:25:00,08-18.5500N,104-37.9000E,87,26.427,33.0704
203,2011/2/25,17:26:00,08-18.5600N,104-38.0600E,86,26.422,33.0699
204,2011/2/25,17:27:00,08-18.5700N,104-38.2200E,87,26.416,33.0703
205,2011/2/25,17:28:00,08-18.5800N,104-38.3800E,87,26.414,33.0716
206,2011/2/25,17:29:00,08-18.5800N,104-38.5400E,86,26.414,33.0754
207,2011/2/25,17:30:00,08-18.5900N,104-38.7000E,87,26.412,33.0792
208,2011/2/25,17:31:00,08-18.6000N,104-38.8600E,87,26.413,33.0816
209,2011/2/25,17:32:00,08-18.6000N,104-39.0200E,87,26.413,33.0813
210,2011/2/25,17:33:00,08-18.6100N,104-39.1800E,87,26.415,33.0797
211,2011/2/25,17:34:00,08-18.6200N,104-39.3400E,87,26.413,33.0794
212,2011/2/25,17:35:00,08-18.6200N,104-39.5000E,88,26.415,33.0795
213,2011/2/25,17:36:00,08-18.6300N,104-39.6700E,87,26.413,33.0782
214,2011/2/25,17:37:00,08-18.6400N,104-39.8300E,88,26.412,33.0779
215,2011/2/25,17:38:00,08-18.6400N,104-39.9900E,89,26.41,33.0769
216,2011/2/25,17:39:00,08-18.6400N,104-40.1600E,89,26.416,33.0755
217,2011/2/25,17:40:00,08-18.6400N,104-40.3200E,88,26.427,33.0754
218,2011/2/25,17:41:00,08-18.6400N,104-40.4900E,89,26.433,33.0742
219,2011/2/25,17:42:00,08-18.6500N,104-40.6600E,89,26.436,33.0702
220,2011/2/25,17:43:00,08-18.6500N,104-40.8200E,88,26.443,33.0645
221,2011/2/25,17:44:00,08-18.6600N,104-40.9900E,88,26.456,33.059
222,2011/2/25,17:45:00,08-18.6600N,104-41.1500E,89,26.469,33.0552
223,2011/2/25,17:46:00,08-18.6600N,104-41.3200E,88,26.476,33.0497
224,2011/2/25,17:47:00,08-18.6700N,104-41.4800E,88,26.489,33.0418
225,2011/2/25,17:48:00,08-18.6700N,104-41.6500E,89,26.497,33.0308
226,2011/2/25,17:49:00,08-18.6700N,104-41.8100E,89,26.5,33.0209
227,2011/2/25,17:50:00,08-18.6700N,104-41.9800E,89,26.495,33.0132
228,2011/2/25,17:51:00,08-18.6800N,104-42.1400E,89,26.495,33.0061
229,2011/2/25,17:52:00,08-18.6800N,104-42.3100E,89,26.492,33.0014
230,2011/2/25,17:53:00,08-18.6800N,104-42.4800E,89,26.494,32.9997
231,2011/2/25,17:54:00,08-18.6800N,104-42.6400E,89,26.49,32.9983
232,2011/2/25,17:55:00,08-18.6800N,104-42.8100E,89,26.492,32.9977
233,2011/2/25,17:56:00,08-18.6800N,104-42.9800E,89,26.49,32.9968
234,2011/2/25,17:57:00,08-18.6800N,104-43.1500E,90,26.485,32.995
235,2011/2/25,17:58:00,08-18.6800N,104-43.3200E,89,26.48,32.9944
236,2011/2/25,17:59:00,08-18.6800N,104-43.4800E,89,26.479,32.9945
237,2011/2/25,18:00:00,08-18.6800N,104-43.6500E,90,26.48,32.9964
238,2011/2/25,18:01:00,08-18.6800N,104-43.8200E,91,26.477,32.9987
239,2011/2/25,18:02:00,08-18.6800N,104-43.9800E,89,26.479,33.0014
240,2011/2/25,18:03:00,08-18.6800N,104-44.1500E,89,26.478,33.0037
241,2011/2/25,18:04:00,08-18.6800N,104-44.3200E,90,26.481,33.0061
242,2011/2/25,18:05:00,08-18.6800N,104-44.4900E,90,26.483,33.0075
243,2011/2/25,18:06:00,08-18.6800N,104-44.6600E,90,26.482,33.0093
244,2011/2/25,18:07:00,08-18.6800N,104-44.8300E,90,26.483,33.0101
245,2011/2/25,18:08:00,08-18.6800N,104-45.0000E,90,26.487,33.012
246,2011/2/25,18:09:00,08-18.6800N,104-45.1700E,89,26.485,33.0132
247,2011/2/25,18:10:00,08-18.6800N,104-45.3400E,90,26.485,33.0148
248,2011/2/25,18:11:00,08-18.6700N,104-45.5100E,90,26.481,33.0164
249,2011/2/25,18:12:00,08-18.6700N,104-45.6800E,90,26.483,33.0187
250,2011/2/25,18:13:00,08-18.6700N,104-45.8500E,90,26.482,33.0207
251,2011/2/25,18:14:00,08-18.6700N,104-46.0200E,91,26.481,33.0227
252,2011/2/25,18:15:00,08-18.6700N,104-46.1900E,90,26.48,33.0244
253,2011/2/25,18:16:00,08-18.6700N,104-46.3600E,90,26.481,33.0252
254,2011/2/25,18:17:00,08-18.6600N,104-46.5400E,90,26.48,33.0273
255,2011/2/25,18:18:00,08-18.6600N,104-46.7100E,91,26.483,33.0298
256,2011/2/25,18:19:00,08-18.6600N,104-46.8800E,89,26.486,33.0328
257,2011/2/25,18:20:00,08-18.6600N,104-47.0500E,90,26.486,33.0335
258,2011/2/25,18:21:00,08-18.6600N,104-47.2200E,90,26.483,33.0325
259,2011/2/25,18:22:00,08-18.6500N,104-47.3900E,89,26.482,33.0307
260,2011/2/25,18:23:00,08-18.6500N,104-47.5600E,91,26.484,33.0317
261,2011/2/25,18:24:00,08-18.6500N,104-47.7300E,89,26.488,33.0347
262,2011/2/25,18:25:00,08-18.6500N,104-47.9000E,91,26.489,33.0372
263,2011/2/25,18:26:00,08-18.6500N,104-48.0700E,90,26.489,33.04
264,2011/2/25,18:27:00,08-18.6400N,104-48.2400E,90,26.49,33.041
265,2011/2/25,18:28:00,08-18.6400N,104-48.4100E,90,26.493,33.0422
266,2011/2/25,18:29:00,08-18.6400N,104-48.5900E,90,26.495,33.0441
267,2011/2/25,18:30:00,08-18.6400N,104-48.7500E,90,26.497,33.0458
268,2011/2/25,18:31:00,08-18.6300N,104-48.9200E,91,26.505,33.0483
269,2011/2/25,18:32:00,08-18.6300N,104-49.0900E,92,26.514,33.0499
270,2011/2/25,18:33:00,08-18.6200N,104-49.2600E,91,26.519,33.0509
271,2011/2/25,18:34:00,08-18.6200N,104-49.4300E,91,26.522,33.0496
272,2011/2/25,18:35:00,08-18.6200N,104-49.6000E,90,26.524,33.0463
273,2011/2/25,18:36:00,08-18.6200N,104-49.7700E,90,26.523,33.0416
274,2011/2/25,18:37:00,08-18.6100N,104-49.9400E,92,26.528,33.0385
275,2011/2/25,18:38:00,08-18.6100N,104-50.1100E,91,26.532,33.0367
276,2011/2/25,18:39:00,08-18.6000N,104-50.2800E,92,26.536,33.0365
277,2011/2/25,18:40:00,08-18.5900N,104-50.4500E,93,26.54,33.0359
278,2011/2/25,18:41:00,08-18.5800N,104-50.6200E,94,26.542,33.0355
279,2011/2/25,18:42:00,08-18.5700N,104-50.7900E,93,26.544,---
280,2011/2/25,18:43:00,08-18.5600N,104-50.9600E,93,26.545,33.0323
281,2011/2/25,18:44:00,08-18.5500N,104-51.1300E,94,26.545,33.0322
282,2011/2/25,18:45:00,08-18.5300N,104-51.3000E,97,26.55,33.0322
283,2011/2/25,18:46:00,08-18.5100N,104-51.4700E,97,26.554,33.0341
284,2011/2/25,18:47:00,08-18.4800N,104-51.6400E,99,26.555,33.0349
285,2011/2/25,18:48:00,08-18.4600N,104-51.8100E,98,26.552,33.0357
286,2011/2/25,18:49:00,08-18.4300N,104-51.9700E,97,26.55,33.0369
287,2011/2/25,18:50:00,08-18.4100N,104-52.1400E,98,26.554,33.0383
288,2011/2/25,18:51:00,08-18.3800N,104-52.3200E,99,26.558,33.0402
289,2011/2/25,18:52:00,08-18.3600N,104-52.4900E,98,26.559,33.0415
290,2011/2/25,18:53:00,08-18.3400N,104-52.6700E,93,26.554,33.0428
291,2011/2/25,18:54:00,08-18.3400N,104-52.8300E,92,26.547,33.0435
292,2011/2/25,18:55:00,08-18.3300N,104-53.0000E,91,26.539,33.0449
293,2011/2/25,18:56:00,08-18.3200N,104-53.1700E,92,26.535,33.0476
294,2011/2/25,18:57:00,08-18.3200N,104-53.3400E,92,26.535,33.0513
295,2011/2/25,18:58:00,08-18.3100N,104-53.5100E,92,26.53,33.0554
296,2011/2/25,18:59:00,08-18.3100N,104-53.6900E,91,26.52,33.0587
297,2011/2/25,19:00:00,08-18.3000N,104-53.8600E,92,26.512,33.0617
298,2011/2/25,19:01:00,08-18.2900N,104-54.0300E,92,26.511,33.0643
299,2011/2/25,19:02:00,08-18.2900N,104-54.2100E,91,26.506,33.0675
300,2011/2/25,19:03:00,08-18.2800N,104-54.3800E,91,26.498,33.0702
301,2011/2/25,19:04:00,08-18.2800N,104-54.5600E,92,26.499,33.0726
302,2011/2/25,19:05:00,08-18.2700N,104-54.7300E,92,26.496,---
303,2011/2/25,19:06:00,08-18.2600N,104-54.9100E,92,26.494,33.0765
304,2011/2/25,19:07:00,08-18.2600N,104-55.0900E,91,26.493,33.0779
305,2011/2/25,19:08:00,08-18.2500N,104-55.2600E,90,26.491,33.0787
306,2011/2/25,19:09:00,08-18.2500N,104-55.4400E,90,26.486,33.0793
307,2011/2/25,19:10:00,08-18.2500N,104-55.6100E,92,26.482,33.0794
308,2011/2/25,19:11:00,08-18.2400N,104-55.7900E,91,26.481,33.0789
309,2011/2/25,19:12:00,08-18.2300N,104-55.9700E,92,26.478,33.0796
310,2011/2/25,19:13:00,08-18.2400N,104-56.1400E,85,26.474,33.0798
311,2011/2/25,19:14:00,08-18.2600N,104-56.3200E,81,26.473,33.0801
312,2011/2/25,19:15:00,08-18.2900N,104-56.4900E,81,26.47,33.0811
313,2011/2/25,19:16:00,08-18.3200N,104-56.6700E,80,26.473,33.082
314,2011/2/25,19:17:00,08-18.3400N,104-56.8400E,80,26.47,33.0832
315,2011/2/25,19:18:00,08-18.3700N,104-57.0200E,81,26.465,33.0838
316,2011/2/25,19:19:00,08-18.4000N,104-57.1900E,81,26.462,33.085
317,2011/2/25,19:20:00,08-18.4200N,104-57.3700E,81,26.459,33.0878
318,2011/2/25,19:21:00,08-18.4500N,104-57.5500E,81,26.459,33.0905
319,2011/2/25,19:22:00,08-18.4700N,104-57.7200E,83,26.452,33.0925
320,2011/2/25,19:23:00,08-18.5000N,104-57.9000E,83,26.45,33.0945
321,2011/2/25,19:24:00,08-18.5100N,104-58.0800E,85,26.448,33.0966
322,2011/2/25,19:25:00,08-18.5200N,104-58.2500E,88,26.443,33.0991
323,2011/2/25,19:26:00,08-18.5300N,104-58.4300E,89,26.446,33.1021
324,2011/2/25,19:27:00,08-18.5300N,104-58.6100E,88,26.443,33.1046
325,2011/2/25,19:28:00,08-18.5300N,104-58.7900E,88,26.442,33.1047
326,2011/2/25,19:29:00,08-18.5400N,104-58.9700E,89,26.444,33.1041
327,2011/2/25,19:30:00,08-18.5400N,104-59.1500E,90,26.448,33.1036
328,2011/2/25,19:31:00,08-18.5400N,104-59.3200E,89,26.45,33.1034
329,2011/2/25,19:32:00,08-18.5400N,104-59.5000E,89,26.452,33.1008
330,2011/2/25,19:33:00,08-18.5400N,104-59.6800E,90,26.451,33.0983
331,2011/2/25,19:34:00,08-18.5400N,104-59.8600E,89,26.451,33.0969
332,2011/2/25,19:35:00,08-18.5400N,105-00.0400E,89,26.453,33.0957
333,2011/2/25,19:36:00,08-18.5400N,105-00.2200E,89,26.455,33.0967
334,2011/2/25,19:37:00,08-18.5400N,105-00.4000E,89,26.457,33.0982
335,2011/2/25,19:38:00,08-18.5500N,105-00.5800E,89,26.458,33.1002
336,2011/2/25,19:39:00,08-18.5600N,105-00.7600E,83,26.462,33.1024
337,2011/2/25,19:40:00,08-18.5800N,105-00.9300E,81,26.463,33.1055
338,2011/2/25,19:41:00,08-18.6100N,105-01.1100E,81,26.467,33.1098
339,2011/2/25,19:42:00,08-18.6400N,105-01.2900E,81,26.468,33.1135
340,2011/2/25,19:43:00,08-18.6700N,105-01.4700E,81,26.472,33.1171
341,2011/2/25,19:44:00,08-18.7000N,105-01.6400E,80,26.472,33.1213
342,2011/2/25,19:45:00,08-18.7300N,105-01.8200E,80,26.469,33.1272
343,2011/2/25,19:46:00,08-18.7500N,105-02.0000E,81,26.471,33.1338
344,2011/2/25,19:47:00,08-18.7800N,105-02.1800E,81,26.473,33.1393
345,2011/2/25,19:48:00,08-18.8100N,105-02.3600E,81,26.475,33.1446
346,2011/2/25,19:49:00,08-18.8300N,105-02.5300E,81,26.478,33.1499
347,2011/2/25,19:50:00,08-18.8600N,105-02.7100E,81,26.474,33.1545
348,2011/2/25,19:51:00,08-18.8900N,105-02.8900E,81,26.475,33.1579
349,2011/2/25,19:52:00,08-18.9200N,105-03.0600E,80,26.474,33.1622
350,2011/2/25,19:53:00,08-18.9500N,105-03.2400E,80,26.475,33.166
351,2011/2/25,19:54:00,08-18.9800N,105-03.4200E,80,26.478,33.1703
352,2011/2/25,19:55:00,08-19.0000N,105-03.6000E,81,26.477,33.1739
353,2011/2/25,19:56:00,08-19.0300N,105-03.7700E,81,26.472,33.1774
354,2011/2/25,19:57:00,08-19.0600N,105-03.9500E,83,26.468,33.1798
355,2011/2/25,19:58:00,08-19.0800N,105-04.1300E,85,26.471,33.1821
356,2011/2/25,19:59:00,08-19.0900N,105-04.3100E,86,26.473,33.186
357,2011/2/25,20:00:00,08-19.1000N,105-04.4900E,86,26.474,33.1897
358,2011/2/25,20:01:00,08-19.1100N,105-04.6700E,87,26.472,33.1929
359,2011/2/25,20:02:00,08-19.1200N,105-04.8500E,88,26.467,33.1954
360,2011/2/25,20:03:00,08-19.1200N,105-05.0400E,86,26.46,33.1986
361,2011/2/25,20:04:00,08-19.1300N,105-05.2200E,86,26.454,33.2021
362,2011/2/25,20:05:00,08-19.1400N,105-05.4000E,86,26.443,33.2055
363,2011/2/25,20:06:00,08-19.1500N,105-05.5800E,86,26.429,33.2074
364,2011/2/25,20:07:00,08-19.1600N,105-05.7600E,86,26.419,33.2091
365,2011/2/25,20:08:00,08-19.1700N,105-05.9500E,86,26.412,33.2092
366,2011/2/25,20:09:00,08-19.1800N,105-06.1300E,87,26.406,33.2092
367,2011/2/25,20:10:00,08-19.1900N,105-06.3100E,87,26.396,33.2095
368,2011/2/25,20:11:00,08-19.2000N,105-06.4900E,86,26.393,33.2098
369,2011/2/25,20:12:00,08-19.2000N,105-06.6800E,87,26.392,33.2093
370,2011/2/25,20:13:00,08-19.2100N,105-06.8600E,86,26.389,33.2101
371,2011/2/25,20:14:00,08-19.2300N,105-07.0400E,86,26.391,33.2098
372,2011/2/25,20:15:00,08-19.2400N,105-07.2200E,85,26.385,33.2101
373,2011/2/25,20:16:00,08-19.2600N,105-07.4100E,85,26.386,---
374,2011/2/25,20:17:00,08-19.2700N,105-07.5900E,85,26.382,33.2106
375,2011/2/25,20:18:00,08-19.2900N,105-07.7800E,84,26.38,33.2111
376,2011/2/25,20:19:00,08-19.3000N,105-07.9600E,85,26.378,33.2112
377,2011/2/25,20:20:00,08-19.3200N,105-08.1600E,82,26.372,---
378,2011/2/25,20:21:00,08-19.3500N,105-08.3400E,81,26.372,33.2106